• In Belarus
  • List of Countries
  • For 7 days
  • Water Temperature
  • Satellite Maps
  • Weather Map
  • Weather Widgets
  • user-avatar
    Login

    Hourly Weather Mochudi

    Today, 20 September, Thursday

    Time Temperature Precipitation Wind Pressure Humidity
    00:00 +26°C° 0 mm 5 mps 682 mmHg 12%
    01:00 +23°C° 0 mm 4 mps 682 mmHg 14%
    02:00 +21°C° 0 mm 4 mps 682 mmHg 20%
    03:00 +20°C° 0 mm 4 mps 682 mmHg 21%
    04:00 +20°C° 0 mm 4 mps 682 mmHg 23%
    05:00 +19°C° 0 mm 3 mps 681 mmHg 24%
    06:00 +20°C° 0 mm 3 mps 682 mmHg 23%
    07:00 +21°C° 0 mm 3 mps 682 mmHg 21%
    08:00 +21°C° 0 mm 3 mps 682 mmHg 20%
    09:00 +26°C° 0 mm 4 mps 682 mmHg 16%
    10:00 +29°C° 0 mm 4 mps 683 mmHg 13%
    11:00 +34°C° 0 mm 4 mps 683 mmHg 9%
    12:00 +36°C° 0 mm 4 mps 682 mmHg 8%
    13:00 +39°C° 0 mm 5 mps 682 mmHg 8%
    14:00 +40°C° 0 mm 5 mps 682 mmHg 7%
    15:00 +40°C° 0 mm 6 mps 681 mmHg 9%
    16:00 +39°C° 0 mm 6 mps 681 mmHg 10%
    17:00 +38°C° 0 mm 6 mps 680 mmHg 11%
    18:00 +35°C° 0 mm 7 mps 681 mmHg 18%
    19:00 +33°C° 0 mm 8 mps 681 mmHg 24%
    20:00 +29°C° 0 mm 8 mps 681 mmHg 31%
    21:00 +28°C° 0 mm 8 mps 682 mmHg 36%
    22:00 +26°C° 0 mm 7 mps 682 mmHg 41%
    23:00 +24°C° 0 mm 7 mps 682 mmHg 46%

    Tomorrow, 21 September, Friday

    Time Temperature Precipitation Wind Pressure Humidity
    00:00 +22°C° 0 mm 6 mps 682 mmHg 51%
    01:00 +21°C° 0 mm 5 mps 682 mmHg 55%
    02:00 +20°C° 0 mm 4 mps 682 mmHg 60%
    03:00 +20°C° 0 mm 4 mps 682 mmHg 63%
    04:00 +19°C° 0 mm 4 mps 682 mmHg 66%
    05:00 +18°C° 0 mm 4 mps 682 mmHg 69%
    06:00 +19°C° 0 mm 5 mps 683 mmHg 68%
    07:00 +19°C° 0 mm 5 mps 683 mmHg 68%
    08:00 +20°C° 0 mm 5 mps 684 mmHg 67%
    09:00 +22°C° 0 mm 5 mps 684 mmHg 59%
    10:00 +25°C° 0 mm 5 mps 684 mmHg 50%
    11:00 +27°C° 0 mm 5 mps 684 mmHg 42%
    12:00 +29°C° 0 mm 5 mps 684 mmHg 37%
    13:00 +32°C° 0 mm 5 mps 683 mmHg 32%
    14:00 +34°C° 0 mm 4 mps 682 mmHg 27%
    15:00 +34°C° 0 mm 4 mps 682 mmHg 26%
    16:00 +34°C° 0 mm 4 mps 682 mmHg 25%
    17:00 +34°C° 0 mm 3 mps 681 mmHg 23%
    18:00 +33°C° 0 mm 3 mps 681 mmHg 27%
    19:00 +30°C° 0 mm 3 mps 681 mmHg 30%
    20:00 +28°C° 0 mm 3 mps 681 mmHg 33%
    21:00 +27°C° 0 mm 3 mps 681 mmHg 36%
    22:00 +27°C° 0 mm 4 mps 682 mmHg 38%
    23:00 +26°C° 0 mm 4 mps 682 mmHg 41%

    Day after tomorrow, 22 September, Saturday

    Time Temperature Precipitation Wind Pressure Humidity
    00:00 +25°C° 0 mm 4 mps 682 mmHg 44%
    01:00 +25°C° 0 mm 4 mps 681 mmHg 47%
    02:00 +24°C° 0 mm 3 mps 681 mmHg 50%
    03:00 +22°C° 0 mm 3 mps 681 mmHg 53%
    04:00 +22°C° 0 mm 3 mps 681 mmHg 56%
    05:00 +21°C° 0 mm 3 mps 681 mmHg 59%
    06:00 +22°C° 0 mm 4 mps 681 mmHg 56%
    07:00 +23°C° 0 mm 5 mps 682 mmHg 54%
    08:00 +24°C° 0 mm 6 mps 683 mmHg 52%
    09:00 +27°C° 0 mm 6 mps 683 mmHg 44%
    10:00 +29°C° 0 mm 6 mps 683 mmHg 37%
    11:00 +32°C° 0 mm 6 mps 683 mmHg 29%
    12:00 +34°C° 0 mm 6 mps 683 mmHg 24%
    13:00 +35°C° 0 mm 6 mps 682 mmHg 20%
    14:00 +37°C° 0 mm 5 mps 682 mmHg 15%
    15:00 +36°C° 0 mm 5 mps 681 mmHg 15%
    16:00 +36°C° 0 mm 5 mps 681 mmHg 14%
    17:00 +36°C° 0 mm 5 mps 681 mmHg 14%
    18:00 +34°C° 0 mm 4 mps 681 mmHg 16%
    19:00 +32°C° 0 mm 4 mps 681 mmHg 18%
    20:00 +29°C° 0 mm 4 mps 681 mmHg 21%
    21:00 +29°C° 0 mm 4 mps 682 mmHg 23%
    22:00 +28°C° 0 mm 4 mps 682 mmHg 25%
    23:00 +27°C° 0 mm 5 mps 682 mmHg 27%

    23 September, Sunday

    Time Temperature Precipitation Wind Pressure Humidity
    00:00 +27°C° 0 mm 5 mps 682 mmHg 28%
    01:00 +26°C° 0 mm 5 mps 681 mmHg 29%
    02:00 +25°C° 0 mm 5 mps 681 mmHg 31%
    03:00 +25°C° 0 mm 5 mps 681 mmHg 34%
    04:00 +23°C° 0 mm 5 mps 681 mmHg 36%
    05:00 +23°C° 0 mm 5 mps 681 mmHg 39%
    06:00 +23°C° 0 mm 6 mps 682 mmHg 37%
    07:00 +24°C° 0 mm 7 mps 682 mmHg 35%
    08:00 +26°C° 0 mm 8 mps 683 mmHg 33%
    09:00 +27°C° 0 mm 7 mps 683 mmHg 30%
    10:00 +29°C° 0 mm 7 mps 683 mmHg 27%
    11:00 +32°C° 0 mm 7 mps 683 mmHg 24%
    12:00 +33°C° 0 mm 6 mps 682 mmHg 21%
    13:00 +35°C° 0 mm 5 mps 682 mmHg 19%
    14:00 +36°C° 0 mm 5 mps 681 mmHg 16%
    15:00 +36°C° 0 mm 5 mps 681 mmHg 15%
    16:00 +36°C° 0 mm 5 mps 680 mmHg 15%
    17:00 +35°C° 0 mm 5 mps 680 mmHg 14%
    18:00 +33°C° 0 mm 4 mps 680 mmHg 16%
    19:00 +32°C° 0 mm 4 mps 680 mmHg 18%
    20:00 +29°C° 0 mm 4 mps 680 mmHg 19%
    21:00 +28°C° 0 mm 4 mps 680 mmHg 20%
    22:00 +27°C° 0 mm 4 mps 680 mmHg 21%
    23:00 +26°C° 0 mm 5 mps 680 mmHg 22%

    24 September, Monday

    Time Temperature Precipitation Wind Pressure Humidity
    00:00 +26°C° 0 mm 4 mps 680 mmHg 24%
    01:00 +25°C° 0 mm 4 mps 680 mmHg 25%
    02:00 +23°C° 0 mm 4 mps 679 mmHg 27%
    03:00 +22°C° 0 mm 4 mps 679 mmHg 29%
    04:00 +22°C° 0 mm 3 mps 679 mmHg 32%
    05:00 +21°C° 0 mm 3 mps 679 mmHg 34%
    06:00 +22°C° 0 mm 3 mps 680 mmHg 33%
    07:00 +23°C° 0 mm 4 mps 681 mmHg 31%
    08:00 +25°C° 0 mm 4 mps 681 mmHg 30%
    09:00 +27°C° 0 mm 4 mps 681 mmHg 26%
    10:00 +30°C° 0 mm 4 mps 681 mmHg 22%
    11:00 +33°C° 0 mm 4 mps 681 mmHg 18%
    12:00 +34°C° 0 mm 4 mps 681 mmHg 16%
    13:00 +35°C° 0 mm 4 mps 680 mmHg 14%
    14:00 +36°C° 0 mm 4 mps 679 mmHg 12%
    15:00 +36°C° 0 mm 4 mps 679 mmHg 11%
    16:00 +36°C° 0 mm 3 mps 678 mmHg 11%
    17:00 +36°C° 0 mm 3 mps 678 mmHg 10%
    18:00 +34°C° 0 mm 3 mps 678 mmHg 11%
    19:00 +31°C° 0 mm 3 mps 678 mmHg 13%
    20:00 +29°C° 0 mm 3 mps 679 mmHg 14%
    21:00 +28°C° 0 mm 3 mps 679 mmHg 14%
    22:00 +27°C° 0 mm 3 mps 679 mmHg 15%
    23:00 +27°C° 0 mm 3 mps 679 mmHg 15%

    25 September, Tuesday

    Time Temperature Precipitation Wind Pressure Humidity
    00:00 +26°C° 0 mm 3 mps 679 mmHg 17%
    01:00 +26°C° 0 mm 3 mps 679 mmHg 19%
    02:00 +25°C° 0 mm 3 mps 678 mmHg 21%
    03:00 +24°C° 0 mm 3 mps 678 mmHg 23%
    04:00 +23°C° 0 mm 2 mps 679 mmHg 25%
    05:00 +21°C° 0 mm 2 mps 679 mmHg 28%
    06:00 +24°C° 0 mm 3 mps 679 mmHg 28%
    07:00 +25°C° 0 mm 4 mps 680 mmHg 28%
    08:00 +26°C° 0 mm 5 mps 680 mmHg 28%
    09:00 +28°C° 0 mm 5 mps 681 mmHg 26%
    10:00 +30°C° 0 mm 5 mps 681 mmHg 24%
    11:00 +34°C° 0 mm 6 mps 681 mmHg 22%
    12:00 +35°C° 0 mm 5 mps 680 mmHg 19%
    13:00 +36°C° 0 mm 4 mps 680 mmHg 16%
    14:00 +38°C° 0 mm 4 mps 679 mmHg 14%
    15:00 +37°C° 0 mm 3 mps 679 mmHg 14%
    16:00 +37°C° 0 mm 3 mps 679 mmHg 14%
    17:00 +37°C° 0 mm 3 mps 678 mmHg 14%
    18:00 +35°C° 0 mm 2 mps 679 mmHg 16%
    19:00 +32°C° 0 mm 2 mps 679 mmHg 18%
    20:00 +31°C° 0 mm 1 mps 679 mmHg 19%
    21:00 +30°C° 0 mm 2 mps 679 mmHg 20%
    22:00 +30°C° 0 mm 2 mps 679 mmHg 21%
    23:00 +30°C° 0 mm 2 mps 679 mmHg 22%
    Show more